Location: ???????
(55.4231°N, 38.5570°E)
Time: 14:04:26
(UTC+00:00)

Cosmos 2278 - Pass Details

Date: 05 August 2024
Orbit: 840 x 850 km, 71.1° (Epoch: 19 September)

Event Time Altitude Azimuth Distance (km) Brightness Sun altitude
Exits shadow 00:05:41 11° 241° (WSW) 2,394 5.5 -10.7°
Maximum altitude 00:10:57 48° 315° (NW) 1,112 4.4 -10.3°
Drops below altitude 10° 00:16:28 10° 29° (NNE) 2,486 7.7 -9.8°
Sets 00:19:01 0° 35° (NE) 3,423 9.2 -9.5°
